Time,TemperatureF,DewpointF,PressureIn,WindDirection,WindDirectionDegrees,WindSpeedMPH,WindSpeedGustMPH,Humidity,HourlyPrecipIn,Conditions,Clouds,dailyrainin,SolarRadiationWatts/m^2,SoftwareType,DateUTC
2013-03-07 18:47:00,53.6,28.6,30.09,East,90,4.3,4.3,38,0.00,CLR,OVC,0.00,0.0,WeatherDisplay:10.37,2013-03-08 00:47:00,
2013-03-07 18:52:00,53.2,28.9,30.09,ESE,112,4.6,4.6,39,0.00,CLR,OVC,0.00,0.0,WeatherDisplay:10.37,2013-03-08 00:52:00,
2013-03-07 18:57:00,52.5,29.5,30.09,SSE,158,2.4,2.6,41,0.00,CLR,OVC,0.00,0.0,WeatherDisplay:10.37,2013-03-08 00:57:00,
2013-03-07 19:02:00,52.2,30.9,30.09,ESE,112,5.8,5.8,44,0.00,CLR,OVC,0.00,0.0,WeatherDisplay:10.37,2013-03-08 01:02:00,
2013-03-07 19:07:00,51.6,30.4,30.09,SSE,158,3.5,3.5,44,0.00,CLR,OVC,0.00,0.0,WeatherDisplay:10.37,2013-03-08 01:07:00,
2013-03-07 19:12:00,51.3,30.1,30.09,SE,135,5.8,5.8,44,0.00,CLR,OVC,0.00,0.0,WeatherDisplay:10.37,2013-03-08 01:12:00,
2013-03-07 19:17:00,51.3,30.6,30.09,ESE,112,4.6,4.6,45,0.00,CLR,OVC,0.00,0.0,WeatherDisplay:10.37,2013-03-08 01:17:00,
2013-03-07 19:22:00,51.3,30.6,30.09,ESE,112,3.5,3.5,45,0.00,CLR,OVC,0.00,0.0,WeatherDisplay:10.37,2013-03-08 01:22:00,
2013-03-07 19:27:00,50.9,30.3,30.12,ESE,112,5.8,5.8,45,0.00,CLR,OVC,0.00,0.0,WeatherDisplay:10.37,2013-03-08 01:27:00,
2013-03-07 19:32:00,50.7,30.1,30.12,SE,135,3.5,3.5,45,0.00,CLR,OVC,0.00,0.0,WeatherDisplay:10.37,2013-03-08 01:32:00,
2013-03-07 19:37:00,50.2,29.6,30.12,ESE,112,3.5,3.5,45,0.00,CLR,OVC,0.00,0.0,WeatherDisplay:10.37,2013-03-08 01:37:00,
2013-03-07 19:42:00,50.0,30.0,30.12,South,180,3.5,3.5,46,0.00,CLR,OVC,0.00,0.0,WeatherDisplay:10.37,2013-03-08 01:42:00,
2013-03-07 19:47:00,50.0,30.0,30.12,ESE,112,4.9,4.9,46,0.00,CLR,OVC,0.00,0.0,WeatherDisplay:10.37,2013-03-08 01:47:00,
2013-03-07 19:52:00,50.0,30.0,30.12,ESE,112,5.9,5.9,46,0.00,CLR,OVC,0.00,0.0,WeatherDisplay:10.37,2013-03-08 01:52:00,
2013-03-07 19:57:00,49.8,30.4,30.12,ENE,68,4.6,4.6,47,0.00,CLR,OVC,0.00,0.0,WeatherDisplay:10.37,2013-03-08 01:57:00,
2013-03-07 20:02:00,49.8,30.4,30.12,ESE,112,5.8,5.8,47,0.00,CLR,OVC,0.00,0.0,WeatherDisplay:10.37,2013-03-08 02:02:00,
2013-03-07 20:07:00,49.5,30.0,30.12,East,90,4.6,4.6,47,0.00,CLR,OVC,0.00,0.0,WeatherDisplay:10.37,2013-03-08 02:07:00,
2013-03-07 20:12:00,49.3,29.9,30.12,ESE,112,3.5,3.5,47,0.00,CLR,OVC,0.00,0.0,WeatherDisplay:10.37,2013-03-08 02:12:00,
2013-03-07 20:17:00,48.9,29.6,30.12,ESE,112,3.5,3.5,47,0.00,CLR,OVC,0.00,0.0,WeatherDisplay:10.37,2013-03-08 02:17:00,
2013-03-07 20:22:00,48.7,29.4,30.12,ESE,112,3.5,3.5,47,0.00,CLR,OVC,0.00,0.0,WeatherDisplay:10.37,2013-03-08 02:22:00,
2013-03-07 20:27:00,48.2,28.9,30.12,ESE,112,4.6,4.6,47,0.00,CLR,OVC,0.00,0.0,WeatherDisplay:10.37,2013-03-08 02:27:00,
2013-03-07 20:32:00,47.8,29.1,30.12,East,90,3.6,3.6,48,0.00,CLR,OVC,0.00,0.0,WeatherDisplay:10.37,2013-03-08 02:32:00,
2013-03-07 20:37:00,47.7,28.9,30.12,SSE,158,3.5,3.5,48,0.00,CLR,OVC,0.00,0.0,WeatherDisplay:10.37,2013-03-08 02:37:00,
2013-03-07 20:42:00,47.1,28.4,30.12,ESE,112,2.9,2.9,48,0.00,CLR,OVC,0.00,0.0,WeatherDisplay:10.37,2013-03-08 02:42:00,
2013-03-07 20:48:00,46.9,28.8,30.12,ESE,112,3.5,3.5,49,0.00,CLR,OVC,0.00,0.0,WeatherDisplay:10.37,2013-03-08 02:48:00,
2013-03-07 20:53:00,46.4,28.3,30.12,ESE,112,3.5,3.5,49,0.00,CLR,OVC,0.00,0.0,WeatherDisplay:10.37,2013-03-08 02:53:00,
2013-03-07 20:58:00,46.2,29.1,30.12,East,90,3.5,3.5,51,0.00,CLR,OVC,0.00,0.0,WeatherDisplay:10.37,2013-03-08 02:58:00,
2013-03-07 21:03:00,46.2,29.5,30.12,SE,135,3.5,3.5,52,0.00,CLR,OVC,0.00,0.0,WeatherDisplay:10.37,2013-03-08 03:03:00,
2013-03-07 21:08:00,46.0,29.4,30.12,SE,135,3.5,3.5,52,0.00,CLR,OVC,0.00,0.0,WeatherDisplay:10.37,2013-03-08 03:08:00,
2013-03-07 21:13:00,45.9,29.7,30.12,ESE,112,3.5,3.5,53,0.00,CLR,OVC,0.00,0.0,WeatherDisplay:10.37,2013-03-08 03:13:00,
2013-03-07 21:18:00,45.7,30.0,30.12,ESE,112,3.5,3.5,54,0.00,CLR,OVC,0.00,0.0,WeatherDisplay:10.37,2013-03-08 03:18:00,
2013-03-07 21:23:00,45.3,30.1,30.12,SE,135,3.5,3.5,55,0.00,CLR,OVC,0.00,0.0,WeatherDisplay:10.37,2013-03-08 03:23:00,
2013-03-07 21:28:00,45.3,30.1,30.12,ENE,68,3.8,3.8,55,0.00,CLR,OVC,0.00,0.0,WeatherDisplay:10.37,2013-03-08 03:28:00,
2013-03-07 21:33:00,45.0,29.8,30.12,ESE,112,3.6,3.6,55,0.00,CLR,OVC,0.00,0.0,WeatherDisplay:10.37,2013-03-08 03:33:00,
2013-03-07 21:38:00,45.0,29.8,30.12,ESE,112,3.5,3.5,55,0.00,CLR,OVC,0.00,0.0,WeatherDisplay:10.37,2013-03-08 03:38:00,
2013-03-07 21:43:00,44.8,29.6,30.09,East,90,3.5,3.5,55,0.00,CLR,OVC,0.00,0.0,WeatherDisplay:10.37,2013-03-08 03:43:00,
2013-03-07 21:48:00,44.2,29.5,30.09,East,90,4.6,4.6,56,0.00,CLR,OVC,0.00,0.0,WeatherDisplay:10.37,2013-03-08 03:48:00,
2013-03-07 21:53:00,44.1,29.4,30.09,ENE,68,3.3,3.3,56,0.00,CLR,OVC,0.00,0.0,WeatherDisplay:10.37,2013-03-08 03:53:00,
2013-03-07 21:58:00,44.2,29.5,30.12,ESE,112,4.9,4.9,56,0.00,CLR,OVC,0.00,0.0,WeatherDisplay:10.37,2013-03-08 03:58:00,
2013-03-07 22:03:00,43.9,29.2,30.12,ESE,112,3.1,3.1,56,0.00,CLR,OVC,0.00,0.0,WeatherDisplay:10.37,2013-03-08 04:03:00,
2013-03-07 22:09:00,43.7,29.0,30.12,ESE,112,3.5,3.5,56,0.00,CLR,OVC,0.00,0.0,WeatherDisplay:10.37,2013-03-08 04:09:00,
2013-03-07 22:14:00,43.5,28.8,30.12,ESE,112,3.6,3.6,56,0.00,CLR,OVC,0.00,0.0,WeatherDisplay:10.37,2013-03-08 04:14:00,
2013-03-07 22:19:00,43.5,28.8,30.12,ESE,112,3.6,3.6,56,0.00,CLR,OVC,0.00,0.0,WeatherDisplay:10.37,2013-03-08 04:19:00,
2013-03-07 22:24:00,43.3,28.7,30.12,East,90,3.5,3.5,56,0.00,CLR,OVC,0.00,0.0,WeatherDisplay:10.37,2013-03-08 04:24:00,
2013-03-07 22:29:00,43.3,28.7,30.15,SE,135,4.9,4.9,56,0.00,CLR,OVC,0.00,0.0,WeatherDisplay:10.37,2013-03-08 04:29:00,
2013-03-07 22:34:00,43.2,28.9,30.15,ESE,112,4.6,4.6,57,0.00,CLR,OVC,0.00,0.0,WeatherDisplay:10.37,2013-03-08 04:34:00,
2013-03-07 22:39:00,43.3,29.1,30.15,East,90,4.6,4.6,57,0.00,CLR,OVC,0.00,0.0,WeatherDisplay:10.37,2013-03-08 04:39:00,
2013-03-07 22:44:00,43.2,28.9,30.15,ESE,112,4.6,4.6,57,0.00,CLR,OVC,0.00,0.0,WeatherDisplay:10.37,2013-03-08 04:44:00,
2013-03-07 22:49:00,42.8,28.6,30.15,ESE,112,4.6,4.6,57,0.00,CLR,OVC,0.00,0.0,WeatherDisplay:10.37,2013-03-08 04:49:00,
2013-03-07 22:55:00,42.6,28.4,30.15,ESE,112,4.6,4.6,57,0.00,CLR,OVC,0.00,0.0,WeatherDisplay:10.37,2013-03-08 04:55:00,
2013-03-07 23:00:00,42.8,28.6,30.15,East,90,4.9,4.9,57,0.00,CLR,OVC,0.00,0.0,WeatherDisplay:10.37,2013-03-08 05:00:00,
2013-03-07 23:05:00,42.4,28.7,30.15,ESE,110,5.0,7.0,58,0.00,CLR,OVC,0.00,0.0,WeatherDisplay:10.37,2013-03-08 05:05:00,
2013-03-07 23:10:00,42.4,28.7,30.15,SE,135,6.4,6.4,58,0.00,CLR,OVC,0.00,0.0,WeatherDisplay:10.37,2013-03-08 05:10:00,
2013-03-07 23:15:00,42.3,28.5,30.15,ESE,112,4.6,4.6,58,0.00,CLR,OVC,0.00,0.0,WeatherDisplay:10.37,2013-03-08 05:15:00,
2013-03-07 23:20:00,41.9,28.6,30.15,ESE,112,3.0,5.0,59,0.00,CLR,OVC,0.00,0.0,WeatherDisplay:10.37,2013-03-08 05:20:00,
2013-03-07 23:25:00,41.7,28.4,30.15,ESE,110,3.0,6.0,59,0.00,CLR,OVC,0.00,0.0,WeatherDisplay:10.37,2013-03-08 05:25:00,
2013-03-07 23:30:00,41.5,28.7,30.15,ESE,112,4.9,4.9,60,0.00,CLR,OVC,0.00,0.0,WeatherDisplay:10.37,2013-03-08 05:30:00,
2013-03-07 23:35:00,41.5,28.7,30.15,ESE,116,3.0,5.0,60,0.00,CLR,OVC,0.00,0.0,WeatherDisplay:10.37,2013-03-08 05:35:00,
2013-03-07 23:40:00,41.5,28.7,30.15,ESE,112,3.0,6.0,60,0.00,CLR,OVC,0.00,0.0,WeatherDisplay:10.37,2013-03-08 05:40:00,
2013-03-07 23:45:00,41.2,28.7,30.15,ESE,110,3.0,6.0,61,0.00,CLR,OVC,0.00,0.0,WeatherDisplay:10.37,2013-03-08 05:45:00,
2013-03-07 23:50:00,41.3,28.8,30.15,ESE,113,3.0,6.0,61,0.00,CLR,OVC,0.00,0.0,WeatherDisplay:10.37,2013-03-08 05:50:00,
2013-03-07 23:55:00,41.4,29.3,30.15,ESE,112,3.5,3.8,62,0.00,CLR,OVC,0.00,0.0,WeatherDisplay:10.37,2013-03-08 05:55:00,